Temperature
9 9 9 10 10 10 10 10 10 11 12 11 11 11 12 13 12 12 12 13 13 13 13 12 12 13 13 13 13 13 13 13 13 13 13 13 14 14 14 14 14 14 14 14
9 9 10 11 11 11 10 10 10 11 11 11 11 11 12 12 12 12 12 12 13 13 12 12 12 12 12 13 12 13 13 13 13 13 13 13 13 13 14 14 14 14 14 14
9 10 11 11 10 10 10 10 10 10 11 11 11 11 11 12 12 12 12 12 12 12 12 12 12 12 12 12 12 12 12 12 12 13 13 13 13 13 13 13 13 13 13 14
10 11 11 10 10 10 10 11 11 11 10 10 11 10 11 11 12 12 12 12 12 12 12 12 12 12 12 12 12 12 12 12 12 12 12 12 13 13 13 13 13 13 13 13
9 10 10 10 10 11 10 11 11 11 11 10 11 10 10 11 11 11 11 12 12 12 12 11 11 11 11 11 11 11 12 12 12 12 12 12 12 12 12 12 12 13 13 13
10 11 10 10 11 11 11 11 11 11 11 10 11 11 10 10 10 10 11 11 11 11 11 11 11 11 11 11 11 11 11 11 11 11 12 12 12 12 12 12 12 12 12 12
10 10 11 11 10 11 11 10 9 9 9 10 12 11 10 10 11 10 10 11 10 10 10 10 10 10 10 11 11 11 11 11 11 11 11 11 11 12 12 12 12 12 12 12
9 9 10 10 10 10 10 10 9 9 10 10 11 10 10 11 11 11 11 10 10 10 10 10 10 10 10 10 10 10 10 10 10 11 11 11 11 11 11 11 11 11 11 11
10 9 10 10 11 10 10 10 11 10 10 10 10 10 10 11 10 10 10 10 10 9 9 9 9 9 9 9 9 9 10 10 10 10 10 11 11 10 10 11 11 11 11 11
11 9 10 10 10 11 10 11 10 9 9 10 11 10 9 9 9 9 9 9 9 9 9 9 8 9 9 9 9 9 9 9 9 10 10 10 10 10 10 10 10 10 10 10
11 9 9 10 10 9 10 10 10 9 9 9 9 9 10 9 9 9 9 9 9 8 8 8 8 8 8 8 8 8 9 9 9 9 9 9 9 10 10 10 9 9 10 10
10 9 8 9 9 9 10 10 10 8 8 9 8 8 11 10 10 9 9 9 8 8 8 8 8 7 8 8 8 8 8 8 8 8 8 9 9 9 9 9 9 9 9 9
10 9 8 8 8 9 9 10 10 9 8 8 8 8 10 10 10 9 9 8 8 8 7 7 7 7 7 7 7 7 7 7 7 8 8 8 8 8 8 8 8 9 9 9
10 9 8 8 8 8 8 9 9 8 6 8 9 9 9 9 9 9 9 8 8 7 7 7 6 6 6 6 6 6 6 7 7 7 7 7 7 8 8 8 8 8 8 8
9 8 9 9 9 9 9 9 9 8 8 7 9 9 9 8 8 9 8 8 7 7 6 6 6 6 5 5 6 6 6 6 6 6 7 7 7 7 7 7 7 7 7 7
9 8 8 8 9 9 8 9 9 9 9 9 9 9 9 9 9 9 8 8 7 6 6 5 5 5 5 5 5 5 5 5 5 6 6 6 6 6 6 6 6 6 6 6
8 8 7 7 8 8 7 8 8 9 9 9 8 9 9 8 8 8 8 7 6 6 5 5 5 4 4 4 4 4 5 5 5 5 5 5 5 5 5 5 5 5 5 5
8 8 6 7 7 6 8 9 9 9 9 9 9 9 9 8 8 7 7 6 6 5 5 4 4 4 4 4 4 4 4 4 4 4 4 5 5 5 5 5 5 5 5 5
8 8 7 6 7 8 8 8 8 8 8 9 8 8 8 8 7 6 6 6 5 5 4 4 4 3 3 3 3 3 3 4 4 4 4 4 4 4 4 4 4 4 4 4
7 7 6 6 6 7 9 8 9 8 7 8 8 7 7 6 5 5 6 5 5 4 4 3 3 3 3 3 3 3 3 3 3 3 3 3 3 3 3 4 4 4 3 3
6 6 5 6 6 7 8 7 7 6 7 8 8 7 7 6 5 5 5 5 4 4 4 3 3 3 3 3 3 2 3 3 3 3 3 3 3 3 3 3 3 3 3 3
6 5 5 6 5 6 6 6 6 7 7 7 7 7 6 6 5 5 4 4 4 3 3 3 3 2 2 2 2 2 2 2 2 2 2 3 3 3 3 2 2 2 2 2
7 7 6 6 7 8 7 7 7 7 7 6 6 6 6 5 4 4 4 3 3 3 3 2 2 2 2 2 2 2 2 2 2 2 2 2 2 2 2 2 2 2 2 2
7 7 7 6 7 8 8 7 7 7 6 6 6 5 5 5 4 3 3 3 3 2 2 2 2 2 2 1 1 1 1 2 2 2 2 2 2 2 2 1 1 1 1 1
7 5 5 5 7 7 7 7 7 6 6 5 5 5 5 4 4 3 3 2 2 2 2 2 1 1 1 1 1 1 1 1 1 1 1 1 1 1 1 1 1 1 0 0
6 5 5 5 7 6 7 7 7 6 5 5 5 4 4 4 3 3 2 2 2 2 1 1 1 1 1 1 1 1 1 1 1 1 1 1 1 1 0 0 1 0 0 0
Wind_Speed
5 4 5 5 6 6 5 5 5 5 3 3 5 6 6 4 3 3 3 3 3 4 4 5 4 3 3 4 4 4 3 2 2 3 4 4 4 4 4 4 7 8 8 9
3 5 6 4 3 4 5 6 4 2 1 2 3 3 3 2 2 2 2 2 3 4 4 5 5 4 3 4 4 4 3 3 2 2 3 3 4 3 4 4 5 8 8 8
3 2 2 1 2 3 4 4 2 1 2 2 2 2 2 2 2 2 1 1 2 5 5 5 5 4 4 4 3 3 3 3 3 3 2 3 3 2 3 4 4 5 6 7
2 3 2 1 3 3 3 2 3 3 2 2 2 0 0 1 2 3 2 1 2 4 4 4 5 4 4 3 3 3 4 3 3 3 3 4 4 4 4 4 4 4 5 6
1 2 2 2 3 2 2 4 5 5 3 1 2 2 1 3 3 3 3 4 4 5 5 5 5 5 4 3 2 1 2 3 3 4 4 4 4 3 3 4 5 5 5 5
2 0 2 2 3 2 2 4 4 3 1 0 1 1 1 2 2 4 5 6 6 6 6 5 5 5 4 4 2 1 1 2 2 2 2 3 3 3 3 5 6 5 4 4
1 2 1 1 2 1 2 1 1 0 1 1 2 3 3 3 4 5 6 6 6 6 6 5 5 5 4 4 2 1 0 1 1 2 2 3 3 4 4 5 5 5 4 4
2 1 2 0 1 2 3 2 1 1 0 1 1 2 3 6 6 7 8 7 7 7 6 6 5 5 4 4 3 2 1 0 0 0 1 2 3 3 3 4 4 5 5 6
0 2 3 1 2 3 3 2 2 2 1 1 1 4 4 6 7 7 8 7 7 7 6 6 5 5 5 4 4 3 3 2 2 1 1 2 2 3 4 4 4 4 4 4
2 1 2 1 3 1 2 3 2 2 1 0 2 3 3 4 4 5 6 6 6 6 6 6 5 5 5 4 4 5 5 4 3 2 2 2 3 3 3 2 4 4 4 4
2 1 2 2 0 1 1 1 2 1 2 1 0 2 3 6 5 6 6 6 6 6 6 5 5 5 5 5 5 5 5 5 5 4 3 3 3 3 3 3 3 3 3 3
2 0 1 2 2 2 3 2 1 1 2 2 1 1 4 7 7 6 6 6 5 6 5 5 5 5 5 5 5 5 5 5 5 4 4 3 3 3 3 3 3 2 2 2
1 0 0 1 2 2 2 2 3 2 1 1 0 2 3 6 7 6 6 5 5 5 6 6 6 5 5 5 5 5 4 4 5 5 4 4 4 4 3 3 3 2 1 2
3 1 0 1 1 1 2 3 2 1 1 1 2 2 1 4 4 4 4 4 4 4 5 6 6 5 5 5 5 5 5 5 5 5 4 4 5 4 3 3 3 2 2 2
2 1 1 2 2 2 3 4 4 5 4 3 2 1 2 3 3 3 3 3 4 4 5 6 6 6 6 6 6 5 6 6 5 5 4 4 4 4 3 3 2 2 1 1
1 1 1 2 2 3 5 6 6 6 6 5 4 2 3 4 4 3 3 3 3 4 5 5 5 6 6 6 6 6 6 6 5 5 5 5 5 4 3 3 2 2 1 1
2 1 1 2 1 3 6 6 8 5 4 5 5 2 3 3 2 1 1 2 3 4 4 4 4 4 5 5 6 7 6 6 5 5 5 5 5 4 4 3 2 2 1 1
2 1 1 2 2 4 3 2 1 5 5 4 2 2 3 3 2 2 2 3 3 4 4 4 4 4 4 5 6 6 6 6 5 5 5 5 5 5 4 3 3 2 1 1
3 2 1 1 3 6 3 3 2 3 3 4 5 3 3 4 2 1 4 4 3 3 3 3 3 4 4 5 6 6 6 6 6 6 6 6 6 5 4 4 3 2 1 1
2 2 1 1 2 4 1 5 2 2 2 2 4 4 4 3 1 2 2 3 3 3 3 3 3 4 4 5 5 6 6 6 6 6 6 6 6 5 4 4 3 2 1 1
3 3 3 4 4 5 3 5 4 3 3 3 4 4 4 3 2 1 2 2 3 3 3 3 3 3 4 5 5 5 6 6 6 6 6 6 5 5 4 3 2 2 1 1
6 5 6 5 5 6 6 6 5 3 3 3 4 4 4 3 3 2 2 2 2 2 3 3 3 3 4 4 5 5 5 5 6 6 6 6 5 5 3 3 2 1 1 1
6 6 4 6 6 2 7 5 3 4 4 3 3 3 4 3 2 1 1 1 1 2 2 3 3 3 3 4 4 5 6 6 6 6 6 6 5 5 4 3 2 2 1 1
4 1 1 4 5 4 6 5 4 4 4 4 4 3 3 2 1 1 0 0 1 1 2 2 3 3 4 4 4 5 5 5 6 6 6 5 5 5 4 3 2 2 1 1
5 5 4 5 4 3 6 7 7 5 5 5 4 3 3 3 2 1 1 1 0 0 1 1 2 3 4 4 4 5 5 5 6 6 6 5 5 4 4 3 3 3 2 2
6 7 7 7 6 6 5 6 7 7 6 6 5 4 3 3 2 1 1 1 0 0 1 1 2 2 3 4 4 5 5 5 5 5 5 4 4 4 3 3 4 5 4 4
Wind_Direction
196 224 231 234 230 253 273 271 265 268 245 257 251 244 241 217 210 208 222 205 182 180 159 149 143 129 124 121 133 123 128 150 161 174 174 169 179 178 182 187 186 189 191 187
213 242 257 260 264 260 259 264 267 289 180 269 259 255 248 222 191 199 191 179 163 139 133 142 143 134 136 131 135 144 157 159 163 184 190 174 170 183 186 187 189 194 194 189
236 277 291 266 274 264 266 256 253 263 311 238 238 280 227 196 190 140 114 118 150 140 137 137 129 121 121 130 139 153 168 166 184 185 188 165 161 166 179 194 201 202 196 194
272 275 270 286 288 276 281 295 278 259 257 239 220 178 308 139 125 111 100 85 99 105 115 127 129 133 131 136 155 161 174 174 188 194 195 185 190 195 202 199 203 206 197 197
291 3 349 306 294 287 294 297 268 256 236 253 218 178 167 133 96 72 76 77 75 89 93 95 109 120 117 114 122 160 169 176 189 189 199 196 205 214 207 194 199 209 209 201
230 309 337 313 318 283 278 283 279 260 236 265 233 167 92 89 92 68 67 63 61 65 78 83 79 83 83 89 91 93 152 187 191 188 202 203 204 211 208 206 207 210 213 210
180 178 146 304 310 287 270 309 357 179 190 196 52 76 56 63 83 83 74 71 69 67 71 69 71 70 65 68 77 90 140 217 203 192 208 220 221 216 220 221 220 219 218 226
181 155 135 41 331 302 273 299 4 332 173 42 34 93 88 75 79 77 73 70 72 63 65 62 59 65 58 56 50 33 20 346 204 229 252 245 236 228 228 226 227 223 222 222
213 108 125 121 305 318 316 338 319 326 0 103 162 121 100 78 77 75 70 64 64 61 54 59 53 55 52 47 34 20 13 10 12 352 323 303 280 251 239 234 232 229 227 224
339 106 148 173 236 232 311 316 335 18 359 298 154 139 151 123 99 81 71 60 56 58 52 53 53 53 53 44 29 17 15 9 356 345 326 305 290 286 280 263 253 244 231 222
320 118 157 184 211 358 326 320 325 323 330 354 65 53 72 128 109 92 78 74 62 55 50 45 42 42 50 39 28 20 7 4 355 341 323 319 306 305 304 290 280 263 242 221
329 98 201 141 107 332 297 311 330 10 317 333 43 63 77 104 99 85 78 74 64 56 48 43 40 35 34 31 21 13 2 358 348 341 336 326 315 313 307 293 288 274 252 244
317 154 141 166 161 207 265 293 311 348 16 334 145 172 104 95 91 83 78 72 59 51 42 35 32 29 23 19 14 8 2 358 346 343 347 340 330 328 316 309 308 307 291 281
329 320 255 351 19 138 226 233 239 144 167 242 220 163 151 101 95 87 83 77 65 47 40 32 23 23 17 13 11 7 357 352 346 342 343 337 327 324 319 314 314 312 307 285
313 298 303 317 326 314 262 244 222 212 210 198 229 190 146 125 112 101 82 74 57 40 35 27 18 15 10 7 4 1 352 346 343 343 341 330 324 329 334 330 319 312 323 311
291 297 333 285 252 284 277 256 237 233 228 223 250 277 90 96 93 80 68 63 50 34 28 21 13 10 5 358 354 352 346 341 340 342 335 332 333 331 331 334 332 319 321 321
210 245 329 277 175 293 271 234 214 206 200 205 227 209 103 88 95 89 63 70 58 38 22 11 3 1 358 349 346 344 340 341 344 340 335 335 334 328 325 327 331 328 320 298
228 205 217 299 335 259 235 47 175 201 215 212 200 133 116 119 112 92 79 75 54 28 13 6 0 353 352 352 346 341 342 346 341 338 337 337 335 327 327 330 325 319 310 298
308 231 232 288 285 271 196 163 156 180 237 203 194 162 103 82 83 91 70 58 55 38 19 4 358 350 350 351 345 342 343 347 347 345 344 337 330 322 320 316 311 309 306 303
305 305 245 223 272 266 165 130 112 109 257 173 163 157 137 116 172 233 71 53 46 38 23 9 359 360 358 351 350 348 344 347 347 344 337 330 326 324 320 314 311 313 305 286
176 204 215 224 251 271 137 135 130 162 230 138 131 136 138 162 180 125 72 55 45 30 21 15 12 6 355 350 353 348 344 345 340 335 332 333 333 330 326 323 318 317 313 301
181 184 195 194 224 248 150 148 183 192 122 112 110 118 122 112 102 91 71 60 40 23 18 15 10 358 353 354 352 344 344 342 340 337 335 336 339 338 335 330 318 304 279 256
203 198 195 202 216 180 164 175 151 121 131 122 114 108 121 126 131 105 73 51 35 26 15 14 5 350 348 357 358 346 341 343 342 340 338 338 343 340 337 332 324 316 295 258
219 200 253 266 245 194 189 174 160 156 148 135 133 133 132 140 134 125 121 50 23 19 9 7 358 349 347 358 358 345 338 343 342 335 334 336 337 338 341 337 327 306 278 254
196 172 213 249 247 207 214 196 183 167 148 143 141 145 151 148 163 192 231 225 241 2 355 4 349 338 342 351 351 348 345 346 341 335 337 339 338 338 337 335 330 319 296 277
195 186 196 226 211 194 211 182 170 168 172 168 165 170 164 165 186 193 224 207 161 309 338 335 340 343 340 344 345 350 352 351 341 335 336 336 334 334 335 336 340 351 334 326
Height
1466 1468 1465 1461 1460 1460 1459 1459 1458 1455 1453 1454 1453 1452 1450 1449 1449 1450 1451 1452 1454 1456 1459 1460 1462 1465 1468 1469 1471 1473 1476 1479 1482 1484 1487 1490 1493 1497 1499 1503 1506 1509 1511 1513
1465 1464 1459 1456 1456 1457 1458 1459 1457 1454 1452 1453 1453 1451 1448 1448 1449 1449 1450 1452 1453 1455 1457 1460 1461 1464 1466 1467 1469 1472 1475 1477 1479 1482 1485 1488 1490 1493 1496 1499 1502 1505 1507 1509
1461 1459 1456 1456 1457 1458 1458 1458 1456 1455 1453 1453 1453 1454 1450 1448 1449 1450 1451 1452 1453 1454 1456 1459 1460 1462 1464 1466 1468 1469 1473 1475 1478 1480 1482 1485 1487 1489 1493 1495 1497 1500 1503 1505
1459 1456 1456 1457 1457 1457 1458 1454 1453 1453 1457 1457 1456 1461 1454 1450 1450 1451 1452 1453 1453 1455 1456 1458 1459 1461 1463 1464 1466 1468 1471 1473 1475 1478 1479 1481 1483 1485 1487 1490 1493 1496 1498 1500
1459 1457 1457 1458 1457 1455 1456 1453 1452 1452 1454 1457 1454 1458 1458 1453 1453 1453 1453 1453 1454 1455 1456 1457 1459 1460 1462 1463 1465 1467 1469 1471 1472 1474 1476 1478 1479 1481 1483 1486 1489 1491 1493 1495
1458 1458 1457 1457 1456 1455 1455 1454 1451 1450 1453 1461 1453 1455 1459 1456 1456 1455 1454 1455 1455 1456 1457 1458 1459 1460 1462 1463 1464 1466 1467 1469 1470 1471 1473 1474 1476 1478 1480 1481 1483 1485 1487 1489
1458 1457 1457 1457 1457 1455 1455 1459 1462 1461 1462 1459 1449 1454 1461 1456 1455 1456 1456 1456 1457 1458 1458 1459 1459 1461 1462 1463 1464 1465 1466 1467 1468 1469 1470 1472 1473 1474 1475 1477 1478 1480 1481 1483
1459 1461 1458 1458 1459 1459 1456 1457 1465 1466 1463 1459 1452 1459 1462 1457 1457 1457 1458 1458 1459 1460 1460 1461 1461 1461 1462 1463 1464 1464 1465 1465 1466 1467 1467 1469 1470 1471 1472 1472 1474 1475 1476 1477
1457 1461 1459 1458 1458 1458 1456 1457 1456 1460 1458 1462 1459 1459 1461 1458 1459 1460 1460 1461 1461 1462 1462 1462 1462 1462 1463 1463 1463 1463 1463 1463 1463 1464 1464 1466 1467 1467 1468 1468 1469 1470 1471 1472
1455 1462 1459 1459 1458 1458 1458 1457 1459 1464 1464 1464 1457 1458 1464 1463 1462 1462 1462 1463 1463 1464 1464 1464 1463 1463 1463 1463 1463 1462 1462 1462 1461 1462 1462 1463 1463 1464 1464 1464 1465 1466 1466 1467
1455 1462 1462 1459 1460 1461 1460 1459 1459 1461 1461 1467 1467 1468 1458 1460 1462 1463 1464 1465 1465 1465 1465 1465 1464 1464 1463 1463 1462 1461 1461 1460 1460 1460 1460 1460 1460 1460 1461 1461 1461 1461 1461 1462
1457 1460 1463 1460 1460 1460 1460 1459 1460 1468 1467 1463 1470 1474 1458 1459 1461 1463 1465 1466 1466 1466 1466 1466 1465 1464 1463 1462 1462 1461 1460 1460 1459 1459 1458 1458 1458 1458 1458 1457 1457 1457 1457 1457
1458 1461 1468 1466 1467 1464 1461 1460 1459 1462 1467 1468 1472 1472 1460 1460 1463 1465 1466 1467 1467 1467 1466 1466 1465 1463 1463 1462 1461 1460 1460 1459 1458 1457 1456 1456 1455 1455 1454 1454 1453 1453 1453 1453
1459 1461 1466 1467 1465 1462 1463 1461 1461 1466 1473 1469 1466 1465 1463 1463 1464 1465 1466 1467 1467 1467 1467 1466 1464 1463 1462 1461 1461 1459 1458 1457 1456 1455 1454 1453 1453 1453 1452 1451 1450 1450 1449 1449
1461 1463 1462 1461 1460 1459 1460 1460 1460 1464 1464 1469 1463 1462 1462 1463 1464 1465 1466 1466 1467 1467 1466 1465 1464 1463 1461 1460 1459 1458 1456 1455 1454 1452 1452 1451 1450 1449 1448 1448 1447 1447 1446 1446
1461 1463 1462 1463 1459 1460 1460 1458 1458 1459 1459 1460 1461 1462 1460 1461 1463 1465 1466 1466 1466 1466 1466 1465 1464 1462 1461 1459 1458 1456 1455 1453 1452 1451 1449 1448 1447 1446 1445 1444 1444 1443 1442 1442
1462 1463 1466 1465 1461 1462 1464 1455 1455 1456 1456 1458 1461 1461 1460 1462 1463 1464 1465 1465 1466 1466 1465 1465 1463 1462 1460 1459 1457 1455 1453 1452 1450 1449 1447 1446 1444 1443 1442 1441 1440 1439 1439 1439
1461 1463 1468 1467 1466 1471 1456 1450 1450 1452 1454 1455 1455 1457 1459 1461 1463 1464 1465 1465 1465 1465 1464 1463 1462 1460 1459 1458 1456 1454 1452 1451 1449 1447 1445 1444 1442 1440 1439 1438 1437 1436 1436 1435
1461 1463 1466 1469 1467 1458 1453 1451 1451 1453 1454 1452 1454 1456 1458 1460 1462 1463 1464 1464 1464 1464 1463 1462 1460 1459 1457 1456 1454 1452 1451 1449 1447 1446 1444 1442 1440 1438 1436 1435 1434 1434 1433 1433
1462 1463 1467 1468 1470 1463 1451 1451 1450 1454 1456 1451 1452 1455 1457 1460 1464 1464 1463 1463 1463 1462 1461 1460 1459 1457 1456 1454 1453 1451 1449 1447 1446 1444 1442 1440 1438 1436 1434 1433 1432 1431 1431 1430
1466 1466 1469 1469 1469 1457 1451 1450 1452 1460 1456 1451 1451 1453 1456 1458 1461 1462 1461 1461 1461 1460 1459 1458 1457 1456 1454 1453 1451 1449 1447 1445 1443 1441 1439 1437 1435 1434 1432 1430 1429 1428 1428 1427
1461 1464 1465 1465 1467 1461 1450 1450 1453 1452 1450 1450 1451 1453 1455 1457 1458 1459 1459 1459 1459 1458 1457 1456 1455 1454 1452 1451 1449 1447 1445 1444 1442 1440 1437 1435 1433 1432 1430 1428 1427 1426 1425 1425
1453 1453 1453 1455 1454 1446 1446 1446 1447 1448 1449 1450 1451 1453 1454 1455 1456 1457 1457 1457 1457 1456 1456 1455 1453 1452 1451 1449 1448 1446 1444 1442 1440 1438 1435 1433 1432 1430 1428 1426 1425 1424 1423 1422
1448 1447 1448 1448 1444 1443 1444 1444 1445 1446 1447 1448 1450 1451 1452 1453 1454 1455 1455 1455 1455 1454 1454 1453 1452 1450 1449 1448 1446 1444 1442 1440 1438 1436 1434 1432 1430 1428 1426 1425 1423 1422 1421 1420
1444 1447 1448 1446 1442 1441 1441 1441 1442 1444 1445 1447 1448 1449 1450 1451 1452 1452 1452 1452 1452 1452 1451 1451 1449 1448 1447 1446 1444 1442 1440 1438 1436 1434 1432 1430 1429 1427 1425 1423 1422 1420 1419 1419
1438 1441 1443 1440 1435 1436 1436 1437 1439 1441 1442 1444 1445 1447 1448 1448 1449 1449 1449 1450 1449 1449 1449 1448 1447 1446 1445 1444 1442 1440 1439 1437 1435 1433 1431 1429 1427 1425 1423 1422 1420 1419 1418 1417